DateTimeUTC,F1_A11,F1_S11,BsB_S11,BsG_S11,BsR_S11,BbsB_S11,BbsG_S11,BbsR_S11,BaB_A11,BaG_A11,BaR_A11,T_S11,U_S11,P_S11,T1_A11
2020-08-18T00:00:00Z,00000388,20000608,,,,,,,,,,23.6,01.0,0680.6,30.9
2020-08-18T00:01:00Z,00000388,20000608,,,,,,,,,,23.6,01.0,0680.6,30.9
2020-08-18T00:02:00Z,00000388,20000608,,,,,,,,,,23.6,01.0,0680.6,30.9
2020-08-18T00:03:00Z,00000388,60000608,,,,,,,,,,23.6,01.0,0680.6,30.9
2020-08-18T00:04:00Z,00000388,41000608,0000.88,-000.39,0000.19,-000.27,-000.10,0000.11,-000.02,-000.03,-000.09,23.4,01.0,0681.5,30.9
2020-08-18T00:05:00Z,00000388,01000608,-000.47,0000.18,0000.33,-000.38,0000.03,0000.24,0000.05,0000.15,0000.01,23.3,01.0,0681.6,30.9
2020-08-18T00:06:00Z,00000388,01000608,0001.57,-000.12,0000.25,0000.33,0000.31,0000.14,-000.17,-000.01,0000.03,23.3,01.1,0681.6,30.8
2020-08-18T00:07:00Z,00000388,01000608,0000.89,0000.40,0000.61,0000.32,0000.15,0000.38,0000.06,-000.14,-000.02,23.3,01.1,0681.6,30.8
2020-08-18T00:08:00Z,00000388,01000608,0000.32,0000.14,0000.54,-000.84,-000.05,0000.19,0000.09,-000.01,-000.03,23.3,01.0,0681.6,30.9
2020-08-18T00:09:00Z,00000388,01000608,-000.30,-000.08,-000.09,0000.69,0000.20,-000.00,-000.03,-000.00,0000.04,23.3,01.1,0681.6,30.9
2020-08-18T00:10:00Z,00000388,01000608,0000.25,-000.29,0000.27,0000.03,0000.15,0000.25,0000.04,0000.02,0000.01,23.3,01.0,0681.6,30.9
2020-08-18T00:11:00Z,00000388,01000608,0000.15,-000.05,0000.34,0000.68,0000.15,0000.28,-000.15,-000.07,-000.01,23.4,01.0,0681.6,30.9
2020-08-18T00:12:00Z,00000388,01000608,0001.17,0000.17,0000.17,0000.66,0000.13,0000.08,-000.03,0000.20,-000.03,23.4,01.0,0681.7,30.9
2020-08-18T00:13:00Z,00000388,01000608,-000.06,0000.31,0000.46,-000.65,0000.22,0000.53,0000.14,-000.03,0000.11,23.4,01.0,0681.7,30.9
2020-08-18T00:14:00Z,00000388,01000608,-000.78,0000.38,0000.05,-000.00,-000.08,-000.21,-000.15,0000.06,-000.02,23.3,01.0,0681.6,30.9
2020-08-18T00:15:00Z,00000388,01000608,0001.14,0000.31,-000.02,-000.08,0000.46,0000.17,0000.03,0000.12,-000.07,23.3,01.0,0681.6,30.9
2020-08-18T00:16:00Z,00000388,01000608,-000.63,0000.46,0000.64,-000.96,0000.10,0000.03,0000.02,-000.25,-000.03,23.3,01.0,0681.6,30.9
2020-08-18T00:17:00Z,00000388,01000608,0000.80,0000.15,0000.32,-000.14,0000.30,0000.40,0000.15,0000.15,0000.17,23.3,01.1,0681.6,30.9
2020-08-18T00:18:00Z,00000388,01000608,-000.22,-000.06,0000.67,-000.10,0000.19,0000.75,-000.04,-000.12,-000.11,23.3,01.1,0681.6,30.9
2020-08-18T00:19:00Z,00000388,01000608,0000.03,-000.22,0000.91,0000.41,0000.02,0000.38,0000.00,0000.07,0000.05,23.2,01.0,0681.6,30.9
2020-08-18T00:20:00Z,00000388,01000608,-000.08,0000.15,0000.51,-000.47,-000.15,-000.00,-000.05,0000.14,0000.00,23.2,01.1,0681.6,30.9
2020-08-18T00:21:00Z,00000388,01000608,-000.26,0000.36,0000.69,0000.43,-000.49,0000.34,-000.09,-000.28,-000.18,23.2,01.1,0681.6,30.8
2020-08-18T00:22:00Z,00000388,01010608,-000.06,0000.48,-000.07,0000.00,0000.30,0000.34,-000.11,-000.13,0000.08,23.2,01.0,0681.6,30.8
2020-08-18T00:23:00Z,00000388,01000608,0000.73,-000.01,-000.16,-000.94,0000.16,-000.16,-000.00,0000.04,-000.10,23.2,01.0,0681.6,30.8
2020-08-18T00:24:00Z,00000388,01000608,-000.02,-000.52,0000.30,0000.36,0000.04,-000.40,0000.01,0000.15,0000.04,23.3,01.0,0681.6,30.9
2020-08-18T00:25:00Z,00000388,01000608,0001.05,-000.08,0000.75,-000.53,0000.37,0000.18,0000.04,-000.09,-000.06,23.3,01.0,0681.7,30.9
2020-08-18T00:26:00Z,00000388,01000608,0000.22,0000.75,0000.70,-000.47,0000.04,0000.46,-000.02,-000.03,-000.06,23.3,00.9,0681.7,30.9
2020-08-18T00:27:00Z,00000388,01000608,0000.39,0000.30,0000.13,-000.32,-000.14,0000.04,-000.13,-000.16,0000.13,23.3,00.9,0681.7,30.9
2020-08-18T00:28:00Z,00000388,01000608,0000.07,0000.03,0000.26,-000.44,0000.14,0000.14,-000.01,0000.13,-000.18,23.3,00.9,0681.7,30.9
2020-08-18T00:29:00Z,00000388,01000608,0000.63,0000.32,0000.44,-000.67,0000.16,-000.25,-000.16,-000.07,-000.06,23.3,00.9,0681.7,30.9
2020-08-18T00:30:00Z,00000388,01000608,0000.38,-000.07,0000.66,0000.04,-000.15,-000.20,0000.19,-000.12,0000.17,23.3,00.9,0681.6,30.9
2020-08-18T00:31:00Z,00000388,01000608,0000.11,0000.25,0000.71,-000.47,-000.07,0000.14,-000.10,0000.11,-000.08,23.3,00.9,0681.6,30.9
2020-08-18T00:32:00Z,00000388,01000608,0000.49,-000.08,0000.59,0000.03,0000.33,0000.14,0000.10,0000.10,0000.05,23.3,00.9,0681.6,30.9
2020-08-18T00:33:00Z,00000388,01000608,0000.34,-000.28,0000.16,-000.44,0000.28,0000.14,-000.00,0000.07,-000.14,23.2,01.0,0681.6,30.9
2020-08-18T00:34:00Z,00000388,01000608,0000.42,0000.49,0000.74,0000.31,0000.07,0000.26,-000.11,0000.03,0000.14,23.3,00.9,0681.6,30.8
2020-08-18T00:35:00Z,00000388,01000608,0000.33,0000.15,-000.26,0000.26,0000.08,0000.08,-000.02,-000.05,-000.01,23.2,00.9,0681.6,30.8
2020-08-18T00:36:00Z,00000388,01000608,0001.01,0000.07,0000.63,-000.61,-000.02,0000.08,0000.06,-000.07,-000.05,23.2,00.9,0681.6,30.8
2020-08-18T00:37:00Z,00000388,01000608,-000.19,0000.22,0000.43,0000.45,-000.33,0000.96,0000.00,-000.16,0000.05,23.2,00.8,0681.6,30.8
2020-08-18T00:38:00Z,00000388,01000608,0000.15,0000.54,0000.44,0000.27,0000.17,-000.04,0000.10,0000.09,-000.09,23.2,00.9,0681.6,30.8
2020-08-18T00:39:00Z,00000388,01000608,0000.00,-000.57,0000.11,0000.44,-000.14,0000.10,-000.13,0000.02,0000.05,23.2,00.8,0681.6,30.9
2020-08-18T00:40:00Z,00000388,01000608,-001.04,0000.66,0000.18,-000.08,0000.43,0000.25,0000.20,0000.03,0000.04,23.3,00.9,0681.6,30.9
2020-08-18T00:41:00Z,00000388,01000608,-000.74,0000.13,0000.61,-000.71,-000.07,0000.32,-000.13,0000.10,0000.00,23.3,00.8,0681.7,30.9
2020-08-18T00:42:00Z,00000388,01000608,-000.86,-000.11,0000.48,-000.62,0000.24,0000.20,-000.01,0000.02,0000.02,23.4,00.9,0681.7,30.9
2020-08-18T00:43:00Z,00000388,01000608,0000.98,-000.18,0000.78,-000.78,0000.32,0000.21,-000.08,-000.14,-000.08,23.4,00.9,0681.7,30.9
2020-08-18T00:44:00Z,00000388,01000608,0000.37,0000.12,0000.68,0000.33,0000.30,0000.29,0000.01,-000.04,0000.06,23.3,00.9,0681.6,30.9
2020-08-18T00:45:00Z,00000388,01000608,0000.33,0000.41,-000.13,-000.82,-000.21,-000.08,0000.19,0000.08,-000.10,23.3,00.8,0681.6,30.9
2020-08-18T00:46:00Z,00000388,01000608,0000.21,0000.22,-000.09,0000.14,-000.19,0000.23,-000.08,-000.09,0000.16,23.3,00.8,0681.6,30.9
2020-08-18T00:47:00Z,00000388,01000608,0000.56,0000.60,0000.39,-000.31,-000.04,0000.25,0000.03,0000.20,0000.02,23.3,00.9,0681.6,30.9
2020-08-18T00:48:00Z,00000388,01000608,-000.30,0000.91,0000.08,-000.26,0000.18,0000.08,0000.05,-000.04,-000.06,23.3,00.9,0681.5,30.9
2020-08-18T00:49:00Z,00000388,01000608,0000.21,0000.02,0000.58,-000.44,-000.04,-000.06,0000.07,0000.05,0000.13,23.3,00.9,0681.5,30.8
2020-08-18T00:50:00Z,00000388,01000608,0001.38,0000.28,0000.13,0000.59,-000.17,0000.17,-000.06,0000.05,-000.06,23.2,00.9,0681.5,30.8
2020-08-18T00:51:00Z,00000388,01000608,0000.75,0000.66,0000.81,-000.19,0000.15,0000.44,0000.03,-000.08,-000.01,23.2,01.0,0681.5,30.8
2020-08-18T00:52:00Z,00000388,01000608,0000.60,0000.21,0000.61,0000.44,0000.26,0000.04,0000.02,0000.03,-000.05,23.2,00.9,0681.5,30.8
2020-08-18T00:53:00Z,00000388,01000608,0000.33,0000.36,0000.06,-000.07,0000.26,0000.07,0000.04,0000.03,0000.03,23.2,01.0,0681.5,30.8
2020-08-18T00:54:00Z,00000388,01000608,0000.51,0000.22,0000.23,-000.81,0000.07,-000.08,0000.03,0000.01,0000.02,23.3,01.0,0681.5,30.9
2020-08-18T00:55:00Z,00000388,01000608,0001.02,0000.46,0000.39,-000.50,0000.28,0000.07,0000.01,0000.00,-000.03,23.3,01.0,0681.5,30.9
2020-08-18T00:56:00Z,00000388,01000608,0000.62,0000.12,0000.06,-000.14,0000.32,0000.04,-000.16,-000.22,-000.06,23.3,00.9,0681.5,30.9
2020-08-18T00:57:00Z,00000388,41000608,,,,,,,,,,23.3,01.0,0681.4,30.9
2020-08-18T00:58:00Z,00000388,61000608,,,,,,,,,,23.4,01.0,0680.4,30.9
2020-08-18T00:59:00Z,00000388,21000608,,,,,,,,,,23.5,00.8,0680.4,30.9
2020-08-18T01:00:00Z,00000388,21000608,,,,,,,,,,23.5,00.8,0680.4,30.9
2020-08-18T01:01:00Z,00000388,21000608,,,,,,,,,,23.5,00.8,0680.4,30.8
2020-08-18T01:02:00Z,00000388,21000608,,,,,,,,,,23.5,00.8,0680.4,30.8
2020-08-18T01:03:00Z,00000388,61000608,,,,,,,,,,23.5,00.8,0680.4,30.8
2020-08-18T01:04:00Z,00000388,41000608,0000.64,0000.09,-000.10,0000.82,-000.04,0000.01,0000.10,-000.08,0000.17,23.3,00.8,0681.3,30.8
2020-08-18T01:05:00Z,00000388,01000608,0000.20,0000.52,0000.05,0000.52,0000.16,-000.06,-000.20,0000.02,-000.09,23.2,00.8,0681.3,30.8
2020-08-18T01:06:00Z,00000388,01000608,0000.62,-000.05,0000.08,0000.10,0000.03,0000.20,0000.06,-000.12,0000.06,23.2,00.8,0681.3,30.8
2020-08-18T01:07:00Z,00000388,01000608,0000.45,0000.24,-000.24,0000.05,0000.16,0000.07,-000.00,0000.07,0000.04,23.2,00.8,0681.3,30.8
2020-08-18T01:08:00Z,00000388,01000608,0000.28,0000.18,0000.07,-000.08,0000.41,0000.54,0000.22,0000.06,-000.04,23.2,00.8,0681.3,30.8
2020-08-18T01:09:00Z,00000388,01000608,0000.85,0000.48,-000.47,0000.80,0000.03,-000.10,-000.12,0000.08,0000.01,23.2,00.9,0681.4,30.9
2020-08-18T01:10:00Z,00000388,01000608,0001.02,-000.11,0000.38,0001.04,0000.13,0000.26,-000.09,0000.12,0000.12,23.3,00.9,0681.4,30.9
2020-08-18T01:11:00Z,00000388,01000608,-000.21,-000.16,-000.06,0000.49,0000.23,-000.02,0000.17,0000.10,-000.04,23.3,00.9,0681.4,30.9
2020-08-18T01:12:00Z,00000388,01000608,-000.02,0000.76,-000.03,0000.41,0000.32,0000.11,0000.04,-000.09,-000.08,23.3,00.9,0681.4,30.9
2020-08-18T01:13:00Z,00000388,01000608,-000.69,0000.20,0000.08,-000.01,0000.22,0000.18,-000.01,0000.06,0000.04,23.3,00.9,0681.4,30.9
2020-08-18T01:14:00Z,00000388,01000608,-001.32,0000.07,-000.06,0000.23,0000.30,0000.05,-000.00,-000.01,0000.08,23.3,00.9,0681.3,30.9
2020-08-18T01:15:00Z,00000388,01000608,0002.23,0000.54,-000.24,0000.26,-000.04,0000.19,-000.01,-000.04,-000.08,23.3,00.9,0681.3,30.9
2020-08-18T01:16:00Z,00000388,01000608,-000.42,0000.33,0000.64,0000.50,0000.04,0000.35,0000.02,-000.01,0000.15,23.2,00.9,0681.3,30.9
2020-08-18T01:17:00Z,00000388,01000608,-000.38,0000.22,-000.12,0001.19,0000.20,0000.38,0000.10,0000.04,-000.09,23.2,00.9,0681.2,30.9
2020-08-18T01:18:00Z,00000388,01000608,0001.16,0000.20,0000.97,0000.75,0000.48,0000.60,-000.05,-000.02,0000.08,23.2,00.9,0681.2,30.9
2020-08-18T01:19:00Z,00000388,01000608,-001.23,0000.87,0000.05,0000.41,0000.10,0000.15,0000.03,0000.07,-000.05,23.2,01.0,0681.2,30.9
2020-08-18T01:20:00Z,00000388,01000608,0001.17,0000.26,-000.10,-000.00,0000.36,0000.19,-000.07,-000.06,0000.01,23.2,01.0,0681.2,30.8
2020-08-18T01:21:00Z,00000388,01000608,0000.53,-000.16,-000.01,0000.37,0000.51,0000.75,0000.18,0000.13,0000.02,23.2,00.9,0681.2,30.8
2020-08-18T01:22:00Z,00000388,01000608,0000.68,-000.01,0000.34,0000.47,0000.44,0000.24,-000.06,0000.04,0000.18,23.1,01.0,0681.2,30.8
2020-08-18T01:23:00Z,00000388,01000608,-000.22,-000.01,0000.15,0001.07,0000.17,-000.03,0000.06,-000.02,-000.19,23.1,01.0,0681.2,30.8
2020-08-18T01:24:00Z,00000388,01000608,0000.26,-000.02,0000.10,0000.56,0000.13,0000.12,-000.06,-000.07,0000.05,23.2,01.0,0681.2,30.9
2020-08-18T01:25:00Z,00000388,01000608,0000.96,-000.30,0000.36,0000.94,0000.04,0000.36,-000.07,0000.12,-000.03,23.2,00.9,0681.2,30.9
2020-08-18T01:26:00Z,00000388,01000608,0000.39,0000.50,0000.11,0000.05,0000.31,0000.21,0000.03,-000.11,-000.07,23.3,00.9,0681.3,30.9
2020-08-18T01:27:00Z,00000388,01000608,0000.23,0000.20,0000.26,-000.52,0000.15,0000.08,0000.00,-000.05,0000.05,23.3,00.9,0681.3,30.9
2020-08-18T01:28:00Z,00000388,01000608,0000.65,0000.61,0000.09,0000.61,0000.06,0000.29,-000.19,0000.01,0000.00,23.3,00.9,0681.3,30.9
2020-08-18T01:29:00Z,00000388,01000608,-000.40,-000.75,-000.10,0000.35,0000.34,0000.03,0000.13,-000.10,-000.08,23.2,00.9,0681.3,30.9
2020-08-18T01:30:00Z,00000388,01000608,-000.15,0000.24,0000.21,0000.50,-000.06,-000.04,-000.11,0000.03,-000.04,23.2,00.8,0681.3,30.9
2020-08-18T01:31:00Z,00000388,01000608,0000.46,0000.28,-000.13,0001.25,-000.48,0000.28,0000.08,-000.09,0000.11,23.2,00.8,0681.2,30.9
2020-08-18T01:32:00Z,00000388,01000608,0000.69,0000.73,0000.10,0000.05,-000.10,0000.50,-000.08,0000.01,-000.15,23.2,00.9,0681.2,30.9
2020-08-18T01:33:00Z,00000388,01000608,-000.36,0000.43,-000.01,0000.37,0000.10,0000.34,0000.08,0000.11,0000.10,23.2,00.8,0681.2,30.8
2020-08-18T01:34:00Z,00000388,01000608,0001.33,0000.20,0000.56,0000.64,-000.08,0000.07,-000.10,0000.01,-000.02,23.2,00.9,0681.2,30.8
2020-08-18T01:35:00Z,00000388,01000608,0000.06,-000.20,-000.01,0000.18,0000.54,0000.01,-000.05,-000.23,-000.01,23.2,00.9,0681.2,30.8
2020-08-18T01:36:00Z,00000388,01000608,0000.47,-000.13,-000.27,0000.74,0000.29,0000.13,0000.07,0000.18,-000.10,23.1,00.9,0681.2,30.8
2020-08-18T01:37:00Z,00000388,01000608,0000.49,0000.13,0000.01,0000.53,0000.36,-000.04,-000.09,-000.17,0000.13,23.1,00.8,0681.2,30.8
2020-08-18T01:38:00Z,00000388,01000608,0000.34,0000.15,0000.16,0000.25,0000.10,0000.12,0000.08,0000.09,0000.00,23.1,00.9,0681.2,30.8
2020-08-18T01:39:00Z,00000388,01000608,0000.20,-000.10,-000.08,0000.91,0000.14,0000.17,0000.06,0000.00,-000.08,23.1,00.9,0681.2,30.9
2020-08-18T01:40:00Z,00000388,01000608,0000.51,0000.15,0000.06,0001.12,-000.33,0000.16,-000.06,-000.05,0000.03,23.2,00.8,0681.2,30.9
2020-08-18T01:41:00Z,00000388,01000608,0000.52,-000.25,0000.07,0000.49,-000.16,0000.06,-000.06,-000.01,0000.05,23.2,00.8,0681.3,30.9
2020-08-18T01:42:00Z,00000388,01000608,0000.68,0000.17,-000.05,0001.11,0000.51,0000.26,-000.11,0000.02,-000.08,23.3,00.8,0681.2,30.9
2020-08-18T01:43:00Z,00000388,01000608,0000.11,0000.41,0000.46,0000.20,0000.20,0000.59,-000.00,0000.13,0000.24,23.3,00.8,0681.2,30.9
2020-08-18T01:44:00Z,00000388,01000608,0000.05,0000.18,-000.20,0000.50,-000.10,-000.17,-000.01,-000.10,-000.15,23.3,00.9,0681.2,30.9
2020-08-18T01:45:00Z,00000388,01000608,0000.98,0000.17,0000.40,0000.25,-000.01,-000.03,0000.08,0000.00,-000.18,23.3,00.9,0681.2,30.9
2020-08-18T01:46:00Z,00000388,01000608,0000.02,0000.49,0000.01,0000.25,-000.31,0000.23,0000.08,-000.01,0000.02,23.3,00.9,0681.2,30.9
2020-08-18T01:47:00Z,00000388,01000608,0000.38,0000.14,0000.01,0000.14,0000.28,0000.26,-000.01,0000.01,0000.16,23.2,00.8,0681.1,30.9
2020-08-18T01:48:00Z,00000388,01000608,0000.57,-000.10,0001.04,0000.36,0000.02,0000.04,-000.10,-000.01,-000.09,23.2,00.9,0681.1,30.9
2020-08-18T01:49:00Z,00000388,01000608,0000.81,-000.37,0000.01,0000.18,-000.23,-000.07,0000.08,0000.24,0000.09,23.2,00.9,0681.1,30.9
2020-08-18T01:50:00Z,00000388,01000608,0000.31,0000.09,0000.13,0000.43,-000.10,-000.07,0000.09,-000.07,-000.00,23.2,00.9,0681.2,30.9
2020-08-18T01:51:00Z,00000388,01000608,-000.01,0000.31,-000.04,0001.36,0000.70,0000.11,0000.05,0000.01,0000.07,23.2,00.9,0681.2,30.8
2020-08-18T01:52:00Z,00000388,01000608,-000.03,-000.26,0000.83,0000.22,0000.36,0000.29,-000.06,-000.16,0000.00,23.2,00.9,0681.1,30.8
2020-08-18T01:53:00Z,00000388,01000608,-001.13,0000.59,0000.24,0000.73,0000.48,0000.26,0000.01,0000.00,0000.04,23.2,00.9,0681.2,30.8
2020-08-18T01:54:00Z,00000388,01000608,0000.78,-000.12,0000.47,0000.51,0000.16,0000.04,0000.08,0000.30,0000.05,23.2,00.9,0681.2,30.8
2020-08-18T01:55:00Z,00000388,01000608,0000.57,-000.30,-000.02,0000.30,0000.45,-000.10,0000.11,-000.09,0000.01,23.2,00.9,0681.2,30.9
2020-08-18T01:56:00Z,00000388,01000608,-000.09,0000.64,-000.01,0001.29,-000.13,0000.26,-000.05,0000.02,0000.04,23.3,01.0,0681.3,30.9
2020-08-18T01:57:00Z,00000388,41000608,,,,,,,,,,23.4,00.6,0681.3,30.9
2020-08-18T01:58:00Z,00000388,61000608,,,,,,,,,,23.4,01.0,0680.3,30.9
2020-08-18T01:59:00Z,00000388,21000608,,,,,,,,,,23.5,00.9,0680.3,30.9
2020-08-18T02:00:00Z,00000388,21000608,,,,,,,,,,23.5,00.8,0680.2,30.9
2020-08-18T02:01:00Z,00000388,21000608,,,,,,,,,,23.5,00.8,0680.2,30.9
2020-08-18T02:02:00Z,00000388,21000608,,,,,,,,,,23.5,00.8,0680.2,30.9
2020-08-18T02:03:00Z,00000388,61000608,,,,,,,,,,23.5,00.8,0680.2,30.8
2020-08-18T02:04:00Z,00000388,41000608,0000.60,0000.56,0000.51,-000.64,0000.61,0000.20,-000.13,-000.07,-000.08,23.3,00.9,0681.1,30.8
2020-08-18T02:05:00Z,00000388,01000608,0000.94,0000.10,-000.06,0000.51,0000.20,0000.14,-000.08,-000.15,0000.26,23.2,00.9,0681.2,30.8
2020-08-18T02:06:00Z,00000388,01000608,0000.28,-000.44,0000.17,0000.48,-000.16,0000.05,0000.09,0000.10,-000.13,23.2,00.9,0681.1,30.8
2020-08-18T02:07:00Z,00000388,01000608,0000.82,-000.03,-000.16,0000.46,0000.25,0000.14,-000.06,-000.15,-000.10,23.2,00.9,0681.1,30.8
2020-08-18T02:08:00Z,00000388,01000608,0000.25,0000.08,-000.12,0000.22,0000.55,0000.15,-000.03,0000.06,0000.18,23.2,00.9,0681.1,30.8
2020-08-18T02:09:00Z,00000388,01000608,0000.24,0000.27,0000.31,0000.02,-000.15,0000.61,0000.04,0000.16,-000.10,23.2,00.9,0681.2,30.8
2020-08-18T02:10:00Z,00000388,01000608,-000.37,0000.08,0000.17,-000.23,0000.12,-000.01,0000.05,0000.02,0000.03,23.3,00.9,0681.2,30.9
2020-08-18T02:11:00Z,00000388,01000608,0000.67,0000.43,-000.06,0000.46,-000.02,-000.19,0000.11,0000.00,0000.08,23.3,00.9,0681.2,30.9
2020-08-18T02:12:00Z,00000388,01000608,-000.63,0000.41,0000.08,0000.04,0000.47,0000.28,-000.02,-000.02,0000.04,23.3,01.0,0681.2,30.9
2020-08-18T02:13:00Z,00000388,01000608,-000.80,-000.17,0000.16,0000.76,0000.08,0000.12,0000.06,0000.06,0000.06,23.3,01.0,0681.2,30.9
2020-08-18T02:14:00Z,00000388,01000608,0000.09,0000.56,0000.12,0000.63,0000.28,-000.05,-000.12,0000.03,-000.31,23.3,01.0,0681.1,30.9
2020-08-18T02:15:00Z,00000388,01000608,-001.52,0000.12,0000.10,-000.04,0000.15,-000.21,0000.14,0000.10,0000.22,23.3,01.0,0681.1,30.9
2020-08-18T02:16:00Z,00000388,01000608,0000.41,0000.11,0000.27,0000.23,-000.27,0000.08,0000.09,-000.21,-000.13,23.3,01.0,0681.1,30.9
2020-08-18T02:17:00Z,00000380,01000600,-000.26,0000.78,0000.14,0000.12,0000.31,-000.04,-000.11,0000.22,0000.04,23.2,01.0,0681.0,30.9
2020-08-18T02:18:00Z,00000380,01000600,-000.14,0000.31,0000.28,0000.26,-000.03,0000.23,0000.15,-000.11,0000.06,23.2,01.0,0681.0,30.9
2020-08-18T02:19:00Z,00000380,01000600,0001.42,0000.24,0000.00,0000.75,0000.30,-000.21,-000.15,-000.00,0000.03,23.2,01.0,0681.0,30.9
2020-08-18T02:20:00Z,00000380,01000600,0000.26,0000.42,-000.09,0000.41,0000.47,0000.07,0000.09,0000.13,0000.08,23.2,01.0,0681.0,30.8
2020-08-18T02:21:00Z,00000380,01000600,-001.14,-000.27,-000.16,-000.35,0000.68,0000.22,-000.07,-000.18,-000.09,23.2,01.0,0681.0,30.8
2020-08-18T02:22:00Z,00000380,01000600,-000.19,0000.38,-000.19,-000.08,-000.11,0000.08,-000.08,-000.08,-000.06,23.1,01.0,0681.0,30.8
2020-08-18T02:23:00Z,00000380,01000600,-000.53,-000.44,0000.39,0000.25,-000.12,0000.02,-000.01,-000.11,0000.08,23.2,01.0,0681.0,30.8
2020-08-18T02:24:00Z,00000380,01000600,0000.14,0000.35,0000.17,0000.35,0000.43,0000.48,-000.00,0000.06,-000.12,23.2,00.9,0681.0,30.8
2020-08-18T02:25:00Z,00000380,01000600,0000.69,-000.13,-000.08,0000.57,0000.22,0000.26,-000.16,-000.01,-000.10,23.2,00.9,0681.0,30.9
2020-08-18T02:26:00Z,00000380,01000600,-000.34,0000.22,0000.06,0001.02,0000.33,-000.03,-000.09,-000.15,-000.02,23.3,00.8,0681.0,30.9
2020-08-18T02:27:00Z,00000380,01000600,-000.22,0000.13,-000.05,0000.20,-000.22,-000.00,-000.02,-000.07,-000.08,23.3,00.7,0681.0,30.9
2020-08-18T02:28:00Z,00000380,01000600,-000.92,0000.34,0000.12,0000.79,-000.32,0000.40,0000.00,-000.01,0000.03,23.3,00.7,0681.0,30.9
2020-08-18T02:29:00Z,00000380,01000600,0000.22,0000.24,0000.23,-000.02,-000.16,0000.31,0000.12,0000.31,0000.11,23.3,01.0,0681.0,30.9
2020-08-18T02:30:00Z,00000380,01000600,0001.36,0000.58,0000.17,0000.15,0000.03,0000.30,-000.08,-000.22,-000.13,23.2,00.9,0681.0,30.9
2020-08-18T02:31:00Z,00000380,01000600,0000.34,-000.01,-000.18,0000.67,0000.02,0000.11,-000.11,-000.02,0000.13,23.2,00.8,0681.0,30.9
2020-08-18T02:32:00Z,00000380,01000600,0000.93,0001.35,-000.12,0000.11,0000.14,0000.12,0000.16,0000.05,-000.13,23.2,00.7,0680.9,30.9
2020-08-18T02:33:00Z,00000380,01000600,0000.04,0000.24,0000.33,0000.41,-000.16,-000.21,-000.28,-000.19,-000.11,23.2,00.7,0681.0,30.8
2020-08-18T02:34:00Z,00000380,01000600,0000.23,0000.44,-000.05,-000.24,-000.10,0000.07,-000.04,0000.03,0000.11,23.1,00.7,0680.9,30.8
2020-08-18T02:35:00Z,00000380,01000600,-001.03,0000.17,-000.35,-000.14,0000.04,-000.13,0000.21,0000.07,0000.09,23.2,00.7,0680.9,30.8
2020-08-18T02:36:00Z,00000380,01000600,0001.01,0000.43,0000.01,0000.24,0000.40,0000.23,-000.14,-000.14,-000.08,23.1,00.7,0680.9,30.8
2020-08-18T02:37:00Z,00000380,01000600,-000.31,0000.16,-000.33,-000.43,0000.09,-000.07,-000.04,-000.17,-000.06,23.1,00.6,0680.9,30.8
2020-08-18T02:38:00Z,00000380,01000600,0000.30,-000.02,-000.18,0000.23,0000.32,-000.03,-000.17,-000.05,0000.00,23.1,00.7,0680.9,30.8
2020-08-18T02:39:00Z,00000380,01000600,0000.71,0000.60,-000.30,0000.56,0000.07,0000.04,0000.03,0000.10,-000.19,23.1,00.5,0680.9,30.9
2020-08-18T02:40:00Z,00000380,01000600,0000.49,0000.60,0000.03,0000.39,0000.00,-000.05,0000.01,0000.00,0000.13,23.2,00.5,0681.0,30.9
2020-08-18T02:41:00Z,00000380,01000600,-001.61,-000.14,-000.12,0000.46,0000.20,-000.13,-000.04,0000.03,0000.05,23.2,00.6,0681.0,30.9
2020-08-18T02:42:00Z,00000380,01000600,0000.15,0000.40,-000.16,-000.70,0000.29,0000.01,0000.08,-000.07,0000.01,23.3,00.5,0680.9,30.9
2020-08-18T02:43:00Z,00000380,01000600,-000.69,0000.02,0000.21,0001.34,0000.37,-000.11,0000.06,0000.04,-000.03,23.3,00.6,0680.9,30.9
2020-08-18T02:44:00Z,00000380,01000600,-000.16,0000.26,0000.09,-000.22,0000.26,-000.07,-000.11,0000.08,-000.00,23.3,00.6,0680.9,30.9
2020-08-18T02:45:00Z,00000380,01000600,-000.24,0000.37,0000.07,-000.37,-000.06,0000.31,-000.02,-000.01,-000.05,23.2,00.6,0680.9,30.9
2020-08-18T02:46:00Z,00000380,01000600,-000.49,0000.40,0000.29,-000.03,0000.01,0000.08,0000.07,-000.05,-000.00,23.2,00.5,0680.9,30.9
2020-08-18T02:47:00Z,00000380,01000600,-000.10,-000.05,-000.13,-000.34,0000.39,-000.10,0000.04,0000.16,-000.02,23.2,00.5,0680.8,30.9
2020-08-18T02:48:00Z,00000380,01000600,-000.00,0000.04,0000.32,0000.18,0000.29,0000.12,-000.12,-000.13,-000.12,23.2,00.6,0680.8,30.9
2020-08-18T02:49:00Z,00000380,01000600,0001.54,0000.48,0000.34,0000.45,0000.06,0000.45,0000.02,0000.04,0000.11,23.1,00.5,0680.8,30.8
2020-08-18T02:50:00Z,00000380,01000600,0000.92,0000.15,-000.04,-000.26,0000.10,-000.02,0000.03,0000.02,0000.10,23.1,00.5,0680.8,30.8
2020-08-18T02:51:00Z,00000380,01000600,0000.09,-000.13,0000.11,0000.59,0000.02,0000.02,-000.00,-000.31,-000.05,23.1,00.5,0680.8,30.8
2020-08-18T02:52:00Z,00000380,01000600,0000.40,0000.29,-000.11,-000.49,0000.42,-000.05,-000.01,0000.04,-000.34,23.1,00.5,0680.8,30.8
2020-08-18T02:53:00Z,00000380,01000600,0000.38,0000.02,0000.10,0000.43,0000.41,0000.14,-000.07,-000.05,0000.16,23.1,00.5,0680.8,30.8
2020-08-18T02:54:00Z,00000380,01000600,0000.06,0000.39,-000.27,0000.67,0000.20,-000.24,-000.08,0000.05,0000.02,23.1,00.5,0680.8,30.9
2020-08-18T02:55:00Z,00000380,01000600,-001.03,0000.38,-000.01,-000.12,0000.05,0000.14,-000.01,0000.06,0000.00,23.2,00.5,0680.8,30.9
2020-08-18T02:56:00Z,00000380,01000600,0000.09,0000.44,-000.16,0000.36,0000.02,0000.05,-000.01,-000.03,-000.04,23.2,00.5,0680.8,30.9
2020-08-18T02:57:00Z,00000380,41000600,,,,,,,,,,23.2,00.0,0680.8,30.9
2020-08-18T02:58:00Z,00000380,61000600,,,,,,,,,,23.3,00.5,0679.8,30.9
2020-08-18T02:59:00Z,00000380,21000600,,,,,,,,,,23.4,00.4,0679.7,30.9
2020-08-18T03:00:00Z,00000380,21000600,,,,,,,,,,23.4,00.4,0679.7,30.9
2020-08-18T03:01:00Z,00000380,21000600,,,,,,,,,,23.4,00.4,0679.7,30.8
2020-08-18T03:02:00Z,00000380,21000600,,,,,,,,,,23.4,00.4,0679.7,30.8
2020-08-18T03:03:00Z,00000380,61000600,,,,,,,,,,23.4,00.4,0679.7,30.8
2020-08-18T03:04:00Z,00000380,41000600,-000.17,0000.10,-000.17,-000.30,-000.27,-000.38,-000.04,-000.08,-000.05,23.2,00.4,0680.6,30.8
2020-08-18T03:05:00Z,00000380,01000600,0000.75,0000.78,-000.46,-000.46,-000.07,-000.21,-000.02,0000.19,-000.12,23.1,00.4,0680.7,30.8
2020-08-18T03:06:00Z,00000380,01000600,0000.19,0000.19,-000.49,0000.92,0000.22,0000.07,0000.10,-000.11,0000.10,23.1,00.5,0680.7,30.8
2020-08-18T03:07:00Z,00000380,01000600,0001.56,0000.36,-000.13,-000.63,-000.20,0000.01,-000.11,-000.12,-000.11,23.1,00.4,0680.7,30.8
2020-08-18T03:08:00Z,00000380,01000600,0000.32,0000.07,-000.58,-000.56,0000.16,-000.34,-000.04,0000.10,0000.03,23.1,00.4,0680.7,30.8
2020-08-18T03:09:00Z,00000380,01000600,0000.14,0000.18,0000.21,-000.03,0000.36,0000.01,0000.12,-000.00,0000.13,23.1,00.4,0680.7,30.8
2020-08-18T03:10:00Z,00000380,01000600,0000.56,0000.26,0000.09,-000.41,0000.39,0000.05,0000.04,-000.02,-000.01,23.1,00.4,0680.7,30.8